Home > Weather > Leer > Past weeks

Flag for Germany Weather for the Past 2 Weeks in Leer, Lower Saxony, Germany

Now
36 °F

Passing clouds.


Feels Like: 25 °F
Forecast: 30 / 36 °F
Wind: 20 mph from Northeast

Location: Wittmundhaven

Current Time: Feb 14, 2016 at 1:32:45 AM

Latest Report: Feb 14, 2016 at 12:20 AM


Visibility: 5 mi

Pressure: 29.21 "Hg

Humidity: 93%

Dew point: 34 °F

Location of LeerLocation

Historic Weather in Leer — Graph

°F

Leer Temperature Yesterday

Maximum temperature yesterday: 36 °F (at 2:20 PM)
Minimum temperature yesterday: 32 °F (at 12:20 AM)
Average temperature yesterday: 34 °F

High & Low Weather Summary for the Past Weeks

 TemperatureHumidityPressure
High52 °F (Feb 1, 11:46 AM)100% (Feb 1, 12:20 AM)30.21 "Hg (Feb 1, 12:20 AM)
Low30 °F (Feb 12, 5:20 AM)62% (Feb 2, 1:20 PM)28.88 "Hg (Feb 9, 7:20 PM)
Average42 °F85%29.58 "Hg
* Reported Jan 29 11:20 PM — Feb 13 11:20 PM, Leer, Weather by CustomWeather, © 2016

Note: Actual official high and low records may vary slightly from our data, if they occured in-between our weather recording intervals... More about our weather records

Advertising

Leer Weather History for the Previous 24 Hours

 ConditionsComfort  
Time TempWeatherWind HumidityBarometerVisibility
11:20 PM
Sat, Feb 13
36 °FPassing clouds.20 mph87%29.21 "Hg5 mi
10:20 PM36 °FPassing clouds.18 mph87%29.24 "Hg5 mi
9:50 PM36 °FPassing clouds.17 mph87%29.24 "Hg5 mi
9:20 PM36 °FPartly cloudy.17 mph87%29.24 "Hg5 mi
8:20 PM36 °FPartly cloudy.16 mph87%29.24 "Hg5 mi
7:20 PM36 °FPartly cloudy.16 mph87%29.27 "Hg5 mi
6:20 PM36 °FPassing clouds.16 mph87%29.27 "Hg6 mi
5:20 PM36 °FPartly sunny.17 mph87%29.27 "Hg6 mi
4:20 PM36 °FPartly sunny.15 mph87%29.30 "Hg6 mi
3:20 PM36 °FScattered clouds.16 mph87%29.30 "Hg5 mi
2:20 PM36 °FScattered clouds.13 mph87%29.33 "Hg5 mi
1:20 PM34 °FPartly sunny.14 mph93%29.36 "Hg4 mi
12:47 PM34 °FFog.14 mph100%29.36 "Hg2 mi
12:20 PM34 °FFog.12 mph100%29.39 "Hg2 mi
11:20 AM32 °FIce fog.14 mph100%29.39 "Hg1 mi
10:20 AM32 °FFog.10 mph100%29.42 "Hg1 mi
9:20 AM32 °FIce fog.12 mph100%29.42 "Hg1 mi
8:20 AM32 °FIce fog.9 mph100%29.42 "Hg0 mi
7:20 AM32 °FIce fog.8 mph100%29.45 "Hg0 mi
6:20 AM32 °FFog.12 mph100%29.45 "Hg0 mi
5:20 AM32 °FIce fog.9 mph100%29.45 "Hg1 mi
4:20 AM32 °FIce fog.9 mph100%29.47 "Hg1 mi
3:20 AM32 °FIce fog.8 mph100%29.47 "Hg1 mi
2:20 AM32 °FIce fog.8 mph100%29.50 "Hg1 mi
1:20 AM32 °FIce fog.8 mph100%29.50 "Hg1 mi
Weather by CustomWeather, © 2016

See weather overviewHow to use our weather pages